Location: Prairie Dale
(45.6972°N, 104.5033°W)
Time: 06:10:42
(UTC+00:00)

AO-109 - Pass Details

Date: 01 July 2022
Orbit: 469 x 506 km, 60.7° (Epoch: 12 August)

Event Time Altitude Azimuth Distance (km) Brightness Sun altitude
Exits shadow 10:24:51 - 191° (SSW) 2,040 ? -7.2°
Reaches altitude 10° 10:25:56 10° 185° (S) 1,641 ? -7.1°
Maximum altitude 10:29:09 29° 123° (ESE) 895 ? -6.7°
Drops below altitude 10° 10:32:26 10° 62° (ENE) 1,671 ? -6.3°
Sets 10:34:47 0° 51° (NE) 2,565 ? -6.0°
